Location: ???????
(60.4260°N, 46.9069°E)
Time: 21:36:58
(UTC+00:00)

Tsikada Rocket - Pass Details

Date: 30 March 2020
Orbit: 957 x 1010 km, 82.9° (Epoch: 24 May)

Event Time Altitude Azimuth Distance (km) Brightness Sun altitude
Exits shadow 01:19:03 - 214° (SW) 3,317 6.3 -8.3°
Reaches altitude 10° 01:20:32 10° 217° (SW) 2,786 5.9 -8.2°
Maximum altitude 01:26:47 52° 294° (WNW) 1,241 4.3 -7.4°
Drops below altitude 10° 01:33:05 10° 10° (N) 2,804 6.9 -6.7°
Sets 01:35:43 0° 16° (NNE) 3,754 7.6 -6.4°
